Wetterdaten: aktuell Montag, 04.05.2026 22:57
Datum Zeit Temp. A. Feuchte A. Luftdruck Regen Wind Richtung Richtung Taupunkt Windchill
04.05.2026 22:57 17,3 °C 57 % 1006,1 hPa 0,0 l/m² 4,0 km/h (1 Bft) N 355 ° 8,7 °C 17,3 °C
04.05.2026 22:54 17,4 °C 56 % 1006,1 hPa 0,0 l/m² 4,0 km/h (1 Bft) N 355 ° 8,5 °C 17,4 °C
04.05.2026 22:53 17,4 °C 56 % 1006,1 hPa 0,0 l/m² 2,9 km/h (1 Bft) N 355 ° 8,5 °C 17,4 °C
04.05.2026 22:51 17,4 °C 56 % 1006,1 hPa 0,0 l/m² 0,0 km/h (0 Bft) N 355 ° 8,5 °C 17,4 °C
04.05.2026 22:49 17,5 °C 56 % 1006,1 hPa 0,0 l/m² 0,0 km/h (0 Bft) N 355 ° 8,6 °C 17,5 °C
04.05.2026 22:47 17,5 °C 56 % 1006,1 hPa 0,0 l/m² 0,0 km/h (0 Bft) N 355 ° 8,6 °C 17,5 °C
04.05.2026 22:45 17,5 °C 55 % 1006,1 hPa 0,0 l/m² 0,1 km/h (0 Bft) N 355 ° 8,4 °C 17,5 °C
04.05.2026 22:43 17,5 °C 55 % 1006,1 hPa 0,0 l/m² 0,0 km/h (0 Bft) N 355 ° 8,4 °C 17,5 °C
04.05.2026 22:41 17,5 °C 55 % 1006,1 hPa 0,0 l/m² 0,0 km/h (0 Bft) N 355 ° 8,4 °C 17,5 °C
04.05.2026 22:39 17,5 °C 55 % 1006,1 hPa 0,0 l/m² 0,0 km/h (0 Bft) N 355 ° 8,4 °C 17,5 °C
04.05.2026 22:37 17,5 °C 55 % 1005,1 hPa 0,0 l/m² 2,7 km/h (1 Bft) N 355 ° 8,4 °C 17,5 °C
04.05.2026 22:35 17,6 °C 55 % 1005,1 hPa 0,0 l/m² 1,2 km/h (1 Bft) N 355 ° 8,5 °C 17,6 °C
04.05.2026 22:33 17,6 °C 55 % 1005,1 hPa 0,0 l/m² 1,2 km/h (1 Bft) N 355 ° 8,5 °C 17,6 °C
04.05.2026 22:31 17,6 °C 55 % 1006,1 hPa 0,0 l/m² 1,3 km/h (1 Bft) N 355 ° 8,5 °C 17,6 °C
04.05.2026 22:29 17,5 °C 55 % 1006,1 hPa 0,0 l/m² 2,8 km/h (1 Bft) N 355 ° 8,4 °C 17,5 °C
04.05.2026 22:27 17,5 °C 55 % 1006,1 hPa 0,0 l/m² 0,7 km/h (0 Bft) N 355 ° 8,4 °C 17,5 °C
04.05.2026 22:25 17,5 °C 55 % 1006,1 hPa 0,0 l/m² 0,7 km/h (0 Bft) N 355 ° 8,4 °C 17,5 °C
04.05.2026 22:23 17,6 °C 55 % 1006,1 hPa 0,0 l/m² 3,4 km/h (1 Bft) N 355 ° 8,5 °C 17,6 °C
04.05.2026 22:21 17,7 °C 55 % 1006,1 hPa 0,0 l/m² 3,4 km/h (1 Bft) N 355 ° 8,5 °C 17,7 °C
04.05.2026 22:19 17,7 °C 55 % 1005,1 hPa 0,0 l/m² 3,4 km/h (1 Bft) N 355 ° 8,5 °C 17,7 °C
04.05.2026 22:17 17,7 °C 54 % 1005,1 hPa 0,0 l/m² 2,6 km/h (1 Bft) N 355 ° 8,3 °C 17,7 °C
04.05.2026 22:14 17,7 °C 55 % 1005,1 hPa 0,0 l/m² 6,0 km/h (2 Bft) N-NW±22.5° 340 ° 8,5 °C 17,7 °C
04.05.2026 22:13 17,7 °C 55 % 1006,1 hPa 0,0 l/m² 3,7 km/h (1 Bft) N-NW±22.5° 340 ° 8,5 °C 17,7 °C
04.05.2026 22:11 17,8 °C 55 % 1006,1 hPa 0,0 l/m² 3,7 km/h (1 Bft) N-NW±22.5° 340 ° 8,6 °C 17,8 °C
04.05.2026 22:09 17,7 °C 56 % 1006,1 hPa 0,0 l/m² 5,4 km/h (1 Bft) N±45° 355 ° 8,8 °C 17,7 °C
04.05.2026 22:07 17,7 °C 56 % 1006,1 hPa 0,0 l/m² 0,1 km/h (0 Bft) NW 325 ° 8,8 °C 17,7 °C
04.05.2026 22:05 17,8 °C 55 % 1006,1 hPa 0,0 l/m² 0,1 km/h (0 Bft) NW 325 ° 8,6 °C 17,8 °C
04.05.2026 22:03 17,8 °C 55 % 1006,1 hPa 0,0 l/m² 0,4 km/h (0 Bft) NW 325 ° 8,6 °C 17,8 °C
04.05.2026 22:01 17,8 °C 55 % 1006,1 hPa 0,0 l/m² 0,8 km/h (0 Bft) NW 325 ° 8,6 °C 17,8 °C
04.05.2026 21:59 17,9 °C 54 % 1006,1 hPa 0,0 l/m² 0,4 km/h (0 Bft) NW 325 ° 8,5 °C 17,9 °C
04.05.2026 21:57 17,9 °C 53 % 1005,1 hPa 0,0 l/m² 0,4 km/h (0 Bft) NW 325 ° 8,2 °C 17,9 °C
04.05.2026 21:55 17,9 °C 53 % 1005,1 hPa 0,0 l/m² 1,2 km/h (1 Bft) N-NW±22.5° 330 ° 8,2 °C 17,9 °C
04.05.2026 21:53 17,9 °C 53 % 1005,1 hPa 0,0 l/m² 2,2 km/h (1 Bft) NW±45° 310 ° 8,2 °C 17,9 °C
04.05.2026 21:51 17,9 °C 53 % 1005,1 hPa 0,0 l/m² 0,6 km/h (0 Bft) NW 305 ° 8,2 °C 17,9 °C
04.05.2026 21:49 18,0 °C 52 % 1005,1 hPa 0,0 l/m² 0,6 km/h (0 Bft) NW 305 ° 8,0 °C 18,0 °C
04.05.2026 21:47 18,0 °C 52 % 1005,1 hPa 0,0 l/m² 0,0 km/h (0 Bft) NW 305 ° 8,0 °C 18,0 °C
04.05.2026 21:45 18,0 °C 52 % 1005,1 hPa 0,0 l/m² 0,0 km/h (0 Bft) NW 305 ° 8,0 °C 18,0 °C
04.05.2026 21:43 18,1 °C 52 % 1005,1 hPa 0,0 l/m² 0,0 km/h (0 Bft) NW 305 ° 8,1 °C 18,1 °C
04.05.2026 21:41 18,1 °C 52 % 1005,1 hPa 0,0 l/m² 0,3 km/h (0 Bft) NW 305 ° 8,1 °C 18,1 °C
04.05.2026 21:39 18,1 °C 52 % 1005,1 hPa 0,0 l/m² 0,3 km/h (0 Bft) NW 305 ° 8,1 °C 18,1 °C
04.05.2026 21:37 18,1 °C 51 % 1005,1 hPa 0,0 l/m² 0,7 km/h (0 Bft) NW 305 ° 7,8 °C 18,1 °C
_ Min-Zeit 06:05 13:05 19:25 - 00:01 - - 13:05 06:05
Minimum _ 12,9 °C 20 % 1004,0 hPa - 0,0 km/h (0 Bft) - - -0,3 °C 12,9 °C
_ Max-Zeit 13:16 06:47 06:19 00:01 19:35 - - 22:07 13:21
Maximum _ 24,4 °C 58 % 1007,3 hPa 0,0 l/m² 15,8 km/h
N-NW (3 Bft)
- - 8,8 °C 24,4 °C
Durchschnitt _ 18,9 °C 38 % 1006,1 hPa #0,0 l/m² 2,2 km/h (1 Bft) N - 3,6 °C 18,8 °C